[[{"header":{"parameterUnit":"m.s-1","parameterCategory":1,"la1":30.2991,"la2":30.254,"lo1":-89.0895,"lo2":-89.0444,"dy":0.0017,"dx":0.0017,"nx":28,"ny":28,"refTime":"2024-06-27T09:00:00:Z","depth":0,"parameterNumber":2,"parameterNumberName":"U-component_of_WINDS"},"data":[0,0,0,0,0,0,0,0,0,0,0,0,0,0,0,0,0,0,0,0,0,0,0,0,0,0,0,0,0,0,0,0,0,0,0,0,0,0,0,0,0,0,0,0,0,0,0,0,0,0,0,0,0,0,0,0,0,0,5.4355,5.4356,0,5.45,5.4502,5.4503,5.4354,5.4348,5.4342,5.4337,5.4488,5.4497,5.4506,0,0,0,0,0,0,0,0,0,0,0,0,0,5.395,5.3958,5.4355,5.4357,5.4358,5.45,5.4502,5.4504,5.4355,5.4348,5.4341,5.4334,5.4485,5.4496,5.4507,0,0,0,0,0,0,0,0,0,0,0,0,0,5.4114,5.3961,5.4354,5.4301,5.4298,5.4499,5.4502,5.4504,5.4356,5.4347,5.4339,5.4331,5.4481,5.4495,5.4509,5.4771,0,0,5.4552,5.4558,0,0,0,0,0,0,0,0,5.4105,5.4129,5.4307,5.4305,5.4302,5.44,5.4414,5.4594,5.4358,5.4334,5.4336,5.4326,5.4466,5.4481,5.4527,5.4778,5.4784,5.4553,5.4562,5.4568,5.4572,0,0,0,0,0,0,0,5.4094,5.4122,5.4412,5.431,5.4307,5.427,5.4284,5.4448,5.4447,5.4336,5.4325,5.4344,5.4462,5.4514,5.4529,5.4787,5.4553,5.4565,5.4574,5.458,5.5258,5.5267,0,0,0,0,0,0,5.4088,5.4113,5.4408,5.4417,5.418,5.4285,5.43,5.4377,5.4445,5.4447,5.4351,5.4337,5.4494,5.4513,5.4534,5.4844,5.4568,5.4581,5.4589,5.5249,5.526,5.5271,0,0,0,0,0,0,5.408,5.4116,5.4402,5.4262,5.4296,5.4301,5.4389,5.4385,5.4435,5.4457,5.4456,5.4404,5.4488,5.4514,5.4713,5.4847,5.4587,5.46,5.5238,5.5252,5.5266,5.5467,0,0,0,0,0,0,5.4069,5.4114,5.4213,5.4266,5.4304,5.4578,5.4397,5.4394,5.446,5.4442,5.4506,5.4508,5.4483,5.4692,5.4727,5.4862,5.4611,5.5226,5.5244,5.5261,5.5448,5.5486,5.5519,0,0,0,0,0,5.4055,5.4265,5.4219,5.4255,5.4428,5.4586,5.4608,5.4574,5.4472,5.4571,5.4585,5.4506,5.4827,5.4714,5.4751,5.4893,5.5217,5.5239,5.526,5.5432,5.5479,5.5518,0,0,0,0,0,0,5.4229,5.427,5.422,5.4453,5.4517,5.456,5.4685,5.4624,5.4719,5.4699,5.4653,5.4669,5.4879,5.4906,5.4779,5.5149,5.5005,5.5035,5.5124,5.5168,5.5203,5.5191,5.4623,0,0,0,0,0,5.4294,5.4418,5.4448,5.4651,5.4685,5.4681,5.4748,5.4716,5.4781,5.4807,5.4835,5.4902,5.5017,5.5094,5.5202,5.5452,5.5463,5.5568,5.5603,5.5632,5.5658,5.579,5.5837,5.5341,5.5341,5.5341,0,0,5.443,5.4468,5.455,5.4687,5.4732,5.4862,5.4704,5.4848,5.4944,5.4829,5.5017,5.5041,5.5112,5.5337,5.5437,5.5366,5.5797,5.5659,5.5682,5.5692,5.5817,5.5864,5.5906,5.5356,5.5353,5.5351,0,0,5.4744,5.4786,5.4958,5.5007,5.5078,5.5073,5.5115,5.5168,5.5179,5.5367,5.5284,5.5397,5.5598,5.5651,5.5705,5.604,5.597,5.6076,5.626,5.639,5.6429,5.6463,5.658,5.6623,5.6102,5.6103,5.6103,0,5.4904,5.5095,5.5055,5.5205,5.5267,5.5169,5.5343,5.5393,5.5497,5.5542,5.546,5.5709,5.575,5.5985,5.6067,5.6114,5.616,5.6068,5.6426,5.646,5.6492,5.6603,5.6648,5.6115,5.6114,5.6113,5.6111,0,5.5288,5.5422,5.5553,5.5653,5.5731,5.5893,5.5877,5.5961,5.5923,5.5927,5.6119,5.6165,5.628,5.6334,5.6299,5.6564,5.6517,5.6433,5.6286,5.6552,5.6655,5.6698,5.6133,5.6128,5.6125,5.6122,0,0,5.5713,5.579,5.5838,5.5882,5.5954,5.6056,5.6214,5.6325,5.6397,5.6472,5.6602,5.6774,5.6695,5.6756,5.6727,5.6841,5.7101,5.6741,5.6742,5.6805,5.7394,5.7456,5.7506,5.7056,5.7064,5.707,5.7387,0,5.6027,5.6298,5.6266,5.6526,5.6648,5.6558,5.6694,5.6753,5.6762,5.6868,5.6877,5.6999,5.6887,5.6923,5.7032,5.7046,5.7218,5.7023,5.7175,5.7181,5.7158,5.756,5.7627,5.7923,5.7428,5.7435,5.744,0,5.6428,5.6516,5.6787,5.6839,5.6889,5.7013,5.7111,5.7214,5.7279,5.7277,5.7346,5.7296,5.7454,5.7307,5.7523,5.7391,5.7452,5.7468,5.7479,5.749,5.7325,5.758,5.8017,5.8061,5.7504,5.7498,5.7494,0,5.6708,5.6895,5.7081,5.7122,5.7187,5.7276,5.7308,5.7364,5.7433,5.752,5.7564,5.7669,5.7726,5.7809,5.7789,5.7684,5.801,5.7861,5.8011,5.8012,5.8082,5.8078,5.8533,5.8126,5.8126,5.8125,5.8124,0,5.706,5.7229,5.7207,5.7322,5.7508,5.7471,5.7657,5.7678,5.7729,5.7845,5.7775,5.7886,5.7853,5.7963,5.7949,5.8129,5.8157,5.8159,5.8153,5.8164,5.8164,5.8201,5.8179,5.8136,5.8134,5.8132,5.813,0,5.7403,5.7396,5.7592,5.7638,5.7654,5.7789,5.7828,5.7936,5.7939,5.8087,5.812,5.8125,5.8251,5.824,5.8382,5.8372,5.8594,5.8565,5.8572,5.8565,5.8715,5.87,5.9208,5.9272,5.8827,5.8831,5.8835,0,5.7627,5.7755,5.7814,5.7887,5.7924,5.8043,5.8112,5.8081,5.8156,5.824,5.8338,5.8457,5.855,5.8755,5.8771,5.8879,5.885,5.9021,5.8866,5.8873,5.885,5.8841,5.8853,5.9051,5.9056,5.906,5.9063,0,5.8024,5.8014,5.8116,5.8218,5.8303,5.8382,5.8453,5.8517,5.8493,5.8582,5.8708,5.8781,5.8925,5.9044,5.9146,5.9178,5.9118,5.9112,5.9152,5.9164,5.9162,5.9163,5.8653,5.91,5.9097,5.9094,5.9092,5.909,5.8313,5.8421,5.848,5.8596,5.8647,5.8715,5.8818,5.8834,5.8939,5.9053,5.9029,5.9172,5.9233,5.9364,5.9407,5.9518,5.9456,5.9515,5.953,5.9544,5.956,5.9147,5.9537,5.9536,5.9535,5.9534,5.9534,0,5.8704,5.8737,5.8845,5.8946,5.9038,5.8973,5.9048,5.9129,5.9256,5.9318,5.9411,5.9557,5.9672,5.9698,5.9808,5.9892,5.9866,5.9921,5.9913,5.9922,5.961,5.9563,5.994,5.994,5.994,5.994,5.994,5.9939,5.8918,5.9097,5.9095,5.9299,5.9331,5.9469,5.9518,5.9581,5.963,5.9796,5.9891,5.9907,5.9954,6.0067,6.017,6.0174,6.0217,6.0283,6.0277,5.9985,5.9944,5.9905,5.986,6.0293,6.0294,6.0578,6.0581,6.0583]},{"header":{"parameterUnit":"m.s-1","parameterCategory":1,"la1":30.2991,"la2":30.254,"lo1":-89.0895,"lo2":-89.0444,"dy":0.0017,"dx":0.0017,"nx":28,"ny":28,"refTime":"2024-06-27T09:00:00:Z","depth":0,"parameterNumber":3,"parameterNumberName":"V-component_of_WINDS"},"data":[0,0,0,0,0,0,0,0,0,0,0,0,0,0,0,0,0,0,0,0,0,0,0,0,0,0,0,0,0,0,0,0,0,0,0,0,0,0,0,0,0,0,0,0,0,0,0,0,0,0,0,0,0,0,0,0,0,0,2.985,2.9852,0,3.0015,3.0017,3.0019,3.0033,3.0031,3.003,3.0028,3.0196,3.0202,3.0208,0,0,0,0,0,0,0,0,0,0,0,0,0,2.9544,2.955,2.985,2.9852,2.9854,3.0015,3.0017,3.002,3.0033,3.0031,3.0029,3.0027,3.0194,3.0201,3.0208,0,0,0,0,0,0,0,0,0,0,0,0,0,2.969,2.9552,2.985,2.9881,2.9885,3.0015,3.0017,3.002,3.0034,3.0031,3.0029,3.0026,3.0191,3.02,3.0209,3.0319,0,0,3.0237,3.0241,0,0,0,0,0,0,0,0,2.9682,2.9701,2.9874,2.9879,2.9884,3.0001,2.9971,3.012,3.0035,2.9977,3.0028,3.0025,3.0133,3.0147,3.0184,3.0327,3.0334,3.0238,3.0244,3.0248,3.025,0,0,0,0,0,0,0,2.9672,2.9694,2.9916,2.9877,2.9883,2.9885,2.9903,2.9999,3.0068,2.9982,2.9984,3.0003,3.0135,3.0175,3.0188,3.0337,3.0238,3.0246,3.0252,3.0255,3.0576,3.0579,0,0,0,0,0,0,2.9656,2.9686,2.991,2.9921,2.9774,2.9893,2.9913,2.9966,3.0067,3.008,3.0005,3.0003,3.016,3.0177,3.0194,3.0328,3.0248,3.0256,3.0262,3.0573,3.0577,3.058,0,0,0,0,0,0,2.9649,2.9676,2.9904,2.9804,2.9833,2.9901,2.9961,2.9971,3.001,3.0084,3.0096,3.0033,3.0159,3.0181,3.0287,3.0334,3.026,3.0269,3.0569,3.0574,3.0578,3.0597,0,0,0,0,0,0,2.9641,2.9674,2.9717,2.9805,2.9838,2.9996,2.9964,2.9976,3.0026,3.0025,3.0114,3.0126,3.0159,3.0274,3.0297,3.0345,3.0276,3.0566,3.0571,3.0577,3.0592,3.0601,3.0609,0,0,0,0,0,2.963,2.9716,2.9719,2.9746,2.9894,2.9998,3.0017,3.0054,3.003,3.0073,3.012,3.0123,3.0325,3.0284,3.031,3.0362,3.0563,3.057,3.0576,3.0589,3.06,3.0609,0,0,0,0,0,0,2.9632,2.9728,2.9733,2.985,2.9916,3.0,3.0057,3.0064,3.0138,3.0134,3.0175,3.0195,3.03,3.0342,3.0295,3.0472,3.0441,3.0453,3.0441,3.0453,3.0461,3.0448,3.0284,0,0,0,0,0,2.9646,2.9724,2.9803,2.9899,2.9931,2.9988,3.0035,3.0057,3.0127,3.0155,3.021,3.0277,3.0355,3.0406,3.0483,3.0598,3.0617,3.0646,3.0654,3.0661,3.0671,3.0733,3.0747,3.0602,3.0602,3.0602,0,0,2.9676,2.9738,2.9785,2.9901,2.9954,3.0033,3.0012,3.0096,3.0154,3.0168,3.0272,3.0314,3.0392,3.0503,3.0554,3.0541,3.0715,3.067,3.0674,3.0681,3.0742,3.0755,3.0767,3.0607,3.0606,3.0605,0,0,2.9771,2.9826,2.9911,2.9965,3.0046,3.0083,3.0103,3.0187,3.0215,3.032,3.0331,3.04,3.0535,3.0589,3.0634,3.0746,3.0751,3.077,3.0814,3.0874,3.0885,3.0895,3.0934,3.0948,3.078,3.078,3.078,0,2.9798,2.9917,2.9954,3.0037,3.0087,3.0102,3.0188,3.0238,3.034,3.0373,3.0357,3.0524,3.0578,3.0701,3.0728,3.0764,3.0787,3.076,3.0881,3.0891,3.0902,3.0939,3.0954,3.0782,3.0781,3.0781,3.0781,0,2.9946,3.0028,3.0087,3.0184,3.0241,3.0325,3.0372,3.0425,3.0441,3.0479,3.0584,3.0649,3.0737,3.0768,3.0785,3.0893,3.0882,3.0872,3.0842,3.0916,3.0952,3.0967,3.0784,3.0783,3.0783,3.0783,0,0,3.0048,3.0163,3.0184,3.0228,3.0317,3.0381,3.0465,3.0551,3.0595,3.0664,3.0734,3.0846,3.0838,3.0889,3.0912,3.0964,3.1047,3.0949,3.0951,3.0964,3.1168,3.1174,3.119,3.1051,3.1053,3.1056,3.1161,0,3.0152,3.0303,3.0336,3.0465,3.054,3.0555,3.0627,3.0689,3.0726,3.0795,3.0836,3.0914,3.0897,3.0928,3.0981,3.1026,3.1089,3.1019,3.1115,3.1118,3.1095,3.1209,3.1217,3.1313,3.1175,3.1178,3.118,0,3.0295,3.0366,3.0502,3.058,3.0613,3.0678,3.0758,3.0824,3.0894,3.0917,3.0973,3.099,3.1076,3.104,3.1159,3.111,3.1151,3.1179,3.1184,3.1194,3.1153,3.1222,3.1345,3.1359,3.1202,3.1201,3.1199,0,3.0354,3.0485,3.0582,3.0619,3.0713,3.0758,3.0798,3.0866,3.0915,3.0985,3.1017,3.1096,3.1139,3.12,3.1237,3.1208,3.1352,3.132,3.1372,3.1371,3.1402,3.14,3.1533,3.1429,3.1429,3.1429,3.1428,0,3.0467,3.0549,3.061,3.067,3.0762,3.0799,3.0889,3.093,3.0989,3.1056,3.1073,3.1136,3.1181,3.125,3.1279,3.1371,3.1391,3.1411,3.1418,3.141,3.1407,3.1437,3.1431,3.1433,3.1432,3.1431,3.143,0,3.0549,3.0594,3.0701,3.078,3.0801,3.0866,3.0933,3.0991,3.1027,3.1112,3.1134,3.1191,3.1273,3.1315,3.1417,3.1437,3.154,3.1543,3.1516,3.1519,3.1569,3.1563,3.1726,3.1748,3.163,3.1631,3.1632,0,3.0618,3.0682,3.0767,3.0813,3.0855,3.0929,3.0979,3.1017,3.1068,3.1151,3.1199,3.1281,3.1348,3.1477,3.1527,3.1604,3.1609,3.1661,3.1621,3.161,3.1609,3.1604,3.161,3.1668,3.1669,3.167,3.1671,0,3.0735,3.0753,3.0825,3.0903,3.0962,3.1026,3.1089,3.1125,3.1173,3.1229,3.1313,3.1365,3.1468,3.1548,3.1629,3.167,3.1678,3.1682,3.1699,3.1691,3.1672,3.1682,3.1535,3.1679,3.1678,3.1677,3.1677,3.1677,3.0813,3.0869,3.0937,3.1015,3.1066,3.1124,3.1182,3.1225,3.1295,3.1382,3.14,3.1487,3.1553,3.1662,3.1705,3.1773,3.1763,3.1786,3.1792,3.1797,3.1799,3.1661,3.1788,3.1788,3.1788,3.1788,3.1788,0,3.093,3.0974,3.1045,3.1132,3.1193,3.1195,3.1264,3.1315,3.1391,3.1452,3.1518,3.1612,3.169,3.1745,3.1824,3.1868,3.1873,3.1887,3.1884,3.1893,3.1804,3.1782,3.1881,3.1881,3.1881,3.1881,3.1881,3.1881,3.0998,3.1093,3.1118,3.1238,3.1281,3.1367,3.1406,3.1458,3.1507,3.1612,3.1676,3.1712,3.177,3.1853,3.1923,3.1937,3.1965,3.1979,3.1993,3.1909,3.1899,3.189,3.1869,3.1985,3.1985,3.2076,3.2077,3.2077]}]]